NOAA 16 DEB, 41424

Orbit data source: Space-Track

NOAA 16 DEB, 41424 is space debris in SSO originally from a launch on Thu, 21 Sep 2000 UTC launched from the Air Force Western Test Range (AFWTR). Debris objects in space refer to the collection of defunct objects orbiting the Earth. Examples of debris include non-operational satellites, rocket bodies, and fragments generated from explosions, collisions, or faulty payload assembly.

Loading next visibility...
Identifier
41424, 2000-055LD
Orbit
SSO
Country
Flag of USUS
Related business
Manufacturer
Unknown
Mission
Spacecraft
Bus & Motor
Unknown
Mass
Unknown
Launch date (UTC)
2000-09-21 (26 years ago)
Launch vehicle
Unknown
Launch site
Air Force Western Test Range (AFWTR)
Object type
Payload
Rocket body
Debris
Shape & HBR
Unknown shape, 0.1 m
Radar Cross Section
Medium (>0.1 m² and <1 m²)

Expand to show TLE details & history
Last TLE update: 1 day ago

TLE from 1 day ago
0 NOAA 16 DEB
1 41424U 00055LD  26208.67764938  .00004679  00000-0  14678-2 0  9997
2 41424  98.9587   8.0319 0021996  39.4663 320.8121 14.40925063540664
Epoch: 2026-07-27T16:15Z
TLE epoch observation values (Epoch: 2026-07-27T16:15:48.906Z)
Latitude
-0.00007°
Longitude
178.72035°
Altitude
746.228 km
Speed
7.488 km/s
True Right ascension
00h 32m 07s
True Declination
0° 00' 00"
Sunlit
Object was in full shadow at epoch
Visualization orbit readout
Latitude
Unknown
Longitude
Unknown
Altitude
Unknown
Speed
Unknown
Apparent Right ascension
Unknown
Apparent Declination
Unknown
Sunlit
N/A
Visualization observer readout
Local Sidereal Time
09:34:38
Azimuth
Unknown
Elevation
Unknown
Doppler factor
Unknown
Orbital elements
Apogee altitude
768.271 km
Perigee altitude
736.902 km
Semi-major axis
7,130.724 km
Eccentricity
0.0022
Inclination
98.9587°
RAAN
8.0319°
Arg. of periapsis
39.4663°
True anomaly
320.65249°
Mean anomaly
320.8121°
Eccentric anomaly
320.73233°
Mean motion
3.60448 °/min
Orbital period
99.88 mins
BSTAR
0.0014678
Loading maneuver chart data...
Computing Atmospheric mass density...
Loading historical data...
Loading historical data...
Loading historical data...
Loading historical data...
Loading historical data...
Loading historical data...
Loading historical data...

Documentation

Showing up to 5 results
|